owner,sensor,date,latitude,longitude,air_pressure(mBar),qcFlag 
TABS,ioos:station:wmo:42046:1,2015-03-01T00:00:00Z,27.8903,-94.0367,1021.22,11111222 
TABS,ioos:station:wmo:42046:1,2015-03-01T00:30:00Z,27.8903,-94.0367,1021.11,11111222 
TABS,ioos:station:wmo:42046:1,2015-03-01T01:00:00Z,27.8903,-94.0367,1021.15,11111222 
TABS,ioos:station:wmo:42046:1,2015-03-01T01:30:00Z,27.8903,-94.0367,1021.67,11111222 
TABS,ioos:station:wmo:42046:1,2015-03-01T02:00:00Z,27.8903,-94.0367,1021.85,11111222 
TABS,ioos:station:wmo:42046:1,2015-03-01T02:30:00Z,27.8903,-94.0367,1021.75,11111222 
TABS,ioos:station:wmo:42046:1,2015-03-01T03:00:00Z,27.8903,-94.0367,1022.03,11111222 
TABS,ioos:station:wmo:42046:1,2015-03-01T03:30:00Z,27.8903,-94.0367,1021.55,11111222 
TABS,ioos:station:wmo:42046:1,2015-03-01T04:00:00Z,27.8903,-94.0367,1022.0,11111222 
TABS,ioos:station:wmo:42046:1,2015-03-01T04:30:00Z,27.8903,-94.0367,1022.04,11111222 
TABS,ioos:station:wmo:42046:1,2015-03-01T05:00:00Z,27.8903,-94.0367,1021.71,11111222 
TABS,ioos:station:wmo:42046:1,2015-03-01T05:30:00Z,27.8903,-94.0367,1021.5,11111222 
TABS,ioos:station:wmo:42046:1,2015-03-01T06:00:00Z,27.8903,-94.0367,1021.58,11111222 
TABS,ioos:station:wmo:42046:1,2015-03-01T06:30:00Z,27.8903,-94.0367,1021.54,11111222 
TABS,ioos:station:wmo:42046:1,2015-03-01T07:00:00Z,27.8903,-94.0367,1021.52,11111222 
TABS,ioos:station:wmo:42046:1,2015-03-01T07:30:00Z,27.8903,-94.0367,1021.25,11111222 
TABS,ioos:station:wmo:42046:1,2015-03-01T08:00:00Z,27.8903,-94.0367,1021.08,11111222 
TABS,ioos:station:wmo:42046:1,2015-03-01T08:30:00Z,27.8903,-94.0367,1020.81,11111222 
TABS,ioos:station:wmo:42046:1,2015-03-01T09:00:00Z,27.8903,-94.0367,1020.73,11111222 
TABS,ioos:station:wmo:42046:1,2015-03-01T09:30:00Z,27.8903,-94.0367,1020.83,11111222 
TABS,ioos:station:wmo:42046:1,2015-03-01T10:00:00Z,27.8903,-94.0367,1020.92,11111222 
TABS,ioos:station:wmo:42046:1,2015-03-01T10:30:00Z,27.8903,-94.0367,1020.96,11111222 
TABS,ioos:station:wmo:42046:1,2015-03-01T11:00:00Z,27.8903,-94.0367,1021.33,11111222 
TABS,ioos:station:wmo:42046:1,2015-03-01T11:30:00Z,27.8903,-94.0367,1021.78,11111222 
TABS,ioos:station:wmo:42046:1,2015-03-01T12:00:00Z,27.8903,-94.0367,1021.89,11111222 
TABS,ioos:station:wmo:42046:1,2015-03-01T12:30:00Z,27.8903,-94.0367,1021.93,11111222 
TABS,ioos:station:wmo:42046:1,2015-03-01T13:00:00Z,27.8903,-94.0367,1022.41,11111222 
TABS,ioos:station:wmo:42046:1,2015-03-01T13:30:00Z,27.8903,-94.0367,1023.0,11111222 
TABS,ioos:station:wmo:42046:1,2015-03-01T14:00:00Z,27.8903,-94.0367,1022.64,11111222 
TABS,ioos:station:wmo:42046:1,2015-03-01T14:30:00Z,27.8903,-94.0367,1023.22,11111222 
TABS,ioos:station:wmo:42046:1,2015-03-01T15:00:00Z,27.8903,-94.0367,1023.44,11111222 
TABS,ioos:station:wmo:42046:1,2015-03-01T15:30:00Z,27.8903,-94.0367,1023.7,11111222 
TABS,ioos:station:wmo:42046:1,2015-03-01T16:00:00Z,27.8903,-94.0367,1023.91,11111222 
TABS,ioos:station:wmo:42046:1,2015-03-01T16:30:00Z,27.8903,-94.0367,1023.75,11111222 
TABS,ioos:station:wmo:42046:1,2015-03-01T17:00:00Z,27.8903,-94.0367,1023.72,11111222 
TABS,ioos:station:wmo:42046:1,2015-03-01T17:30:00Z,27.8903,-94.0367,1023.57,11111222 
TABS,ioos:station:wmo:42046:1,2015-03-01T18:00:00Z,27.8903,-94.0367,1023.2,11111222 
TABS,ioos:station:wmo:42046:1,2015-03-01T18:30:00Z,27.8903,-94.0367,1022.76,11111222 
TABS,ioos:station:wmo:42046:1,2015-03-01T19:00:00Z,27.8903,-94.0367,1022.55,11111222 
TABS,ioos:station:wmo:42046:1,2015-03-01T19:30:00Z,27.8903,-94.0367,1022.24,11111222 
TABS,ioos:station:wmo:42046:1,2015-03-01T20:00:00Z,27.8903,-94.0367,1021.83,11111222 
TABS,ioos:station:wmo:42046:1,2015-03-01T20:30:00Z,27.8903,-94.0367,1021.33,11111222 
TABS,ioos:station:wmo:42046:1,2015-03-01T21:00:00Z,27.8903,-94.0367,1021.53,11111222 
TABS,ioos:station:wmo:42046:1,2015-03-01T21:30:00Z,27.8903,-94.0367,1021.43,11111222 
TABS,ioos:station:wmo:42046:1,2015-03-01T22:00:00Z,27.8903,-94.0367,1021.27,11111222 
TABS,ioos:station:wmo:42046:1,2015-03-01T22:30:00Z,27.8903,-94.0367,1021.26,11111222 
TABS,ioos:station:wmo:42046:1,2015-03-01T23:00:00Z,27.8903,-94.0367,1021.39,11111222 
TABS,ioos:station:wmo:42046:1,2015-03-01T23:30:00Z,27.8903,-94.0367,1021.62,11111222 
TABS,ioos:station:wmo:42046:1,2015-03-02T00:00:00Z,27.8903,-94.0367,1021.74,11111222 
TABS,ioos:station:wmo:42046:1,2015-03-02T00:30:00Z,27.8903,-94.0367,1021.93,11111222 
TABS,ioos:station:wmo:42046:1,2015-03-02T01:00:00Z,27.8903,-94.0367,1022.04,11111222 
TABS,ioos:station:wmo:42046:1,2015-03-02T01:30:00Z,27.8903,-94.0367,1022.54,11111222 
TABS,ioos:station:wmo:42046:1,2015-03-02T02:00:00Z,27.8903,-94.0367,1022.83,11111222 
TABS,ioos:station:wmo:42046:1,2015-03-02T02:30:00Z,27.8903,-94.0367,1023.09,11111222 
TABS,ioos:station:wmo:42046:1,2015-03-02T03:00:00Z,27.8903,-94.0367,1023.32,11111222 
TABS,ioos:station:wmo:42046:1,2015-03-02T03:30:00Z,27.8903,-94.0367,1023.77,11111222 
TABS,ioos:station:wmo:42046:1,2015-03-02T04:00:00Z,27.8903,-94.0367,1023.53,11111222 
TABS,ioos:station:wmo:42046:1,2015-03-02T04:30:00Z,27.8903,-94.0367,1023.91,11111222 
TABS,ioos:station:wmo:42046:1,2015-03-02T05:00:00Z,27.8903,-94.0367,1023.82,11111222 
TABS,ioos:station:wmo:42046:1,2015-03-02T05:30:00Z,27.8903,-94.0367,1024.08,11111222 
TABS,ioos:station:wmo:42046:1,2015-03-02T06:00:00Z,27.8903,-94.0367,1023.67,11111222 
TABS,ioos:station:wmo:42046:1,2015-03-02T06:30:00Z,27.8903,-94.0367,1023.35,11111222 
TABS,ioos:station:wmo:42046:1,2015-03-02T07:00:00Z,27.8903,-94.0367,1023.25,11111222 
TABS,ioos:station:wmo:42046:1,2015-03-02T07:30:00Z,27.8903,-94.0367,1023.01,11111222 
TABS,ioos:station:wmo:42046:1,2015-03-02T08:00:00Z,27.8903,-94.0367,1022.97,11111222 
TABS,ioos:station:wmo:42046:1,2015-03-02T08:30:00Z,27.8903,-94.0367,1022.65,11111222 
TABS,ioos:station:wmo:42046:1,2015-03-02T09:00:00Z,27.8903,-94.0367,1022.74,11111222 
TABS,ioos:station:wmo:42046:1,2015-03-02T09:30:00Z,27.8903,-94.0367,1022.61,11111222 
TABS,ioos:station:wmo:42046:1,2015-03-02T10:00:00Z,27.8903,-94.0367,1022.64,11111222 
TABS,ioos:station:wmo:42046:1,2015-03-02T10:30:00Z,27.8903,-94.0367,1022.93,11111222 
TABS,ioos:station:wmo:42046:1,2015-03-02T11:00:00Z,27.8903,-94.0367,1022.87,11111222 
TABS,ioos:station:wmo:42046:1,2015-03-02T11:30:00Z,27.8903,-94.0367,1023.15,11111222 
TABS,ioos:station:wmo:42046:1,2015-03-02T12:00:00Z,27.8903,-94.0367,1023.44,11111222 
TABS,ioos:station:wmo:42046:1,2015-03-02T12:30:00Z,27.8903,-94.0367,1023.82,11111222 
TABS,ioos:station:wmo:42046:1,2015-03-02T13:00:00Z,27.8903,-94.0367,1024.05,11111222 
TABS,ioos:station:wmo:42046:1,2015-03-02T13:30:00Z,27.8903,-94.0367,1024.09,11111222 
TABS,ioos:station:wmo:42046:1,2015-03-02T14:00:00Z,27.8903,-94.0367,1024.09,11111222 
TABS,ioos:station:wmo:42046:1,2015-03-02T14:30:00Z,27.8903,-94.0367,1024.22,11111222 
TABS,ioos:station:wmo:42046:1,2015-03-02T15:00:00Z,27.8903,-94.0367,1024.92,11111222 
TABS,ioos:station:wmo:42046:1,2015-03-02T15:30:00Z,27.8903,-94.0367,1025.03,11111222 
TABS,ioos:station:wmo:42046:1,2015-03-02T16:00:00Z,27.8903,-94.0367,1025.16,11111222 
TABS,ioos:station:wmo:42046:1,2015-03-02T16:30:00Z,27.8903,-94.0367,1025.28,11111222 
TABS,ioos:station:wmo:42046:1,2015-03-02T17:00:00Z,27.8903,-94.0367,1025.0,11111222 
TABS,ioos:station:wmo:42046:1,2015-03-02T17:30:00Z,27.8903,-94.0367,1024.66,11111222 
TABS,ioos:station:wmo:42046:1,2015-03-02T18:00:00Z,27.8903,-94.0367,1024.3,11111222 
TABS,ioos:station:wmo:42046:1,2015-03-02T18:30:00Z,27.8903,-94.0367,1023.8,11111222 
TABS,ioos:station:wmo:42046:1,2015-03-02T19:00:00Z,27.8903,-94.0367,1023.28,11111222 
TABS,ioos:station:wmo:42046:1,2015-03-02T19:30:00Z,27.8903,-94.0367,1022.79,11111222 
TABS,ioos:station:wmo:42046:1,2015-03-02T20:00:00Z,27.8903,-94.0367,1022.39,11111222 
TABS,ioos:station:wmo:42046:1,2015-03-02T20:30:00Z,27.8903,-94.0367,1022.11,11111222 
TABS,ioos:station:wmo:42046:1,2015-03-02T21:00:00Z,27.8903,-94.0367,1021.98,11111222 
TABS,ioos:station:wmo:42046:1,2015-03-02T21:30:00Z,27.8903,-94.0367,1021.59,11111222 
TABS,ioos:station:wmo:42046:1,2015-03-02T22:00:00Z,27.8903,-94.0367,1021.28,11111222 
TABS,ioos:station:wmo:42046:1,2015-03-02T22:30:00Z,27.8903,-94.0367,1021.08,11111222 
TABS,ioos:station:wmo:42046:1,2015-03-02T23:00:00Z,27.8903,-94.0367,1020.91,11111222 
TABS,ioos:station:wmo:42046:1,2015-03-02T23:30:00Z,27.8903,-94.0367,1021.19,11111222 
TABS,ioos:station:wmo:42046:1,2015-03-03T00:00:00Z,27.8903,-94.0367,1021.06,11111222 
TABS,ioos:station:wmo:42046:1,2015-03-03T00:30:00Z,27.8903,-94.0367,1020.83,11111222 
TABS,ioos:station:wmo:42046:1,2015-03-03T01:00:00Z,27.8903,-94.0367,1021.04,11111222 
TABS,ioos:station:wmo:42046:1,2015-03-03T01:30:00Z,27.8903,-94.0367,1021.07,11111222 
TABS,ioos:station:wmo:42046:1,2015-03-03T02:00:00Z,27.8903,-94.0367,1021.41,11111222 
TABS,ioos:station:wmo:42046:1,2015-03-03T02:30:00Z,27.8903,-94.0367,1021.6,11111222 
TABS,ioos:station:wmo:42046:1,2015-03-03T03:00:00Z,27.8903,-94.0367,1021.69,11111222 
TABS,ioos:station:wmo:42046:1,2015-03-03T03:30:00Z,27.8903,-94.0367,1021.45,11111222 
TABS,ioos:station:wmo:42046:1,2015-03-03T04:00:00Z,27.8903,-94.0367,1021.35,11111222 
TABS,ioos:station:wmo:42046:1,2015-03-03T04:30:00Z,27.8903,-94.0367,1021.34,11111222 
TABS,ioos:station:wmo:42046:1,2015-03-03T05:00:00Z,27.8903,-94.0367,1021.17,11111222 
TABS,ioos:station:wmo:42046:1,2015-03-03T05:30:00Z,27.8903,-94.0367,1020.95,11111222 
TABS,ioos:station:wmo:42046:1,2015-03-03T06:00:00Z,27.8903,-94.0367,1020.65,11111222 
TABS,ioos:station:wmo:42046:1,2015-03-03T06:30:00Z,27.8903,-94.0367,1020.35,11111222 
TABS,ioos:station:wmo:42046:1,2015-03-03T07:00:00Z,27.8903,-94.0367,1020.05,11111222 
TABS,ioos:station:wmo:42046:1,2015-03-03T07:30:00Z,27.8903,-94.0367,1019.53,11111222 
TABS,ioos:station:wmo:42046:1,2015-03-03T08:00:00Z,27.8903,-94.0367,1019.21,11111222 
TABS,ioos:station:wmo:42046:1,2015-03-03T08:30:00Z,27.8903,-94.0367,1018.8,11111222 
TABS,ioos:station:wmo:42046:1,2015-03-03T09:00:00Z,27.8903,-94.0367,1018.61,11111222 
TABS,ioos:station:wmo:42046:1,2015-03-03T09:30:00Z,27.8903,-94.0367,1018.43,11111222 
TABS,ioos:station:wmo:42046:1,2015-03-03T10:00:00Z,27.8903,-94.0367,1018.19,11111222 
TABS,ioos:station:wmo:42046:1,2015-03-03T10:30:00Z,27.8903,-94.0367,1018.3,11111222 
TABS,ioos:station:wmo:42046:1,2015-03-03T11:00:00Z,27.8903,-94.0367,1017.98,11111222 
TABS,ioos:station:wmo:42046:1,2015-03-03T11:30:00Z,27.8903,-94.0367,1017.88,11111222 
TABS,ioos:station:wmo:42046:1,2015-03-03T12:00:00Z,27.8903,-94.0367,1018.06,11111222 
TABS,ioos:station:wmo:42046:1,2015-03-03T12:30:00Z,27.8903,-94.0367,1018.28,11111222 
TABS,ioos:station:wmo:42046:1,2015-03-03T13:00:00Z,27.8903,-94.0367,1018.02,11111222 
TABS,ioos:station:wmo:42046:1,2015-03-03T13:30:00Z,27.8903,-94.0367,1017.99,11111222 
TABS,ioos:station:wmo:42046:1,2015-03-03T14:00:00Z,27.8903,-94.0367,1018.17,11111222 
TABS,ioos:station:wmo:42046:1,2015-03-03T14:30:00Z,27.8903,-94.0367,1018.07,11111222 
TABS,ioos:station:wmo:42046:1,2015-03-03T15:00:00Z,27.8903,-94.0367,1018.28,11111222 
TABS,ioos:station:wmo:42046:1,2015-03-03T15:30:00Z,27.8903,-94.0367,1018.53,11111222 
TABS,ioos:station:wmo:42046:1,2015-03-03T16:00:00Z,27.8903,-94.0367,1018.29,11111222 
TABS,ioos:station:wmo:42046:1,2015-03-03T16:30:00Z,27.8903,-94.0367,1018.19,11111222 
TABS,ioos:station:wmo:42046:1,2015-03-03T17:00:00Z,27.8903,-94.0367,1018.16,11111222 
TABS,ioos:station:wmo:42046:1,2015-03-03T17:30:00Z,27.8903,-94.0367,1017.98,11111222 
TABS,ioos:station:wmo:42046:1,2015-03-03T18:00:00Z,27.8903,-94.0367,1017.51,11111222 
TABS,ioos:station:wmo:42046:1,2015-03-03T18:30:00Z,27.8903,-94.0367,1017.09,11111222 
TABS,ioos:station:wmo:42046:1,2015-03-03T19:00:00Z,27.8903,-94.0367,1016.48,11111222 
TABS,ioos:station:wmo:42046:1,2015-03-03T19:30:00Z,27.8903,-94.0367,1015.87,11111222 
TABS,ioos:station:wmo:42046:1,2015-03-03T20:00:00Z,27.8903,-94.0367,1015.34,11111222 
TABS,ioos:station:wmo:42046:1,2015-03-03T20:30:00Z,27.8903,-94.0367,1014.82,11111222 
TABS,ioos:station:wmo:42046:1,2015-03-03T21:00:00Z,27.8903,-94.0367,1014.18,11111222 
TABS,ioos:station:wmo:42046:1,2015-03-03T21:30:00Z,27.8903,-94.0367,1014.18,11111222 
TABS,ioos:station:wmo:42046:1,2015-03-03T22:00:00Z,27.8903,-94.0367,1013.84,11111222 
TABS,ioos:station:wmo:42046:1,2015-03-03T22:30:00Z,27.8903,-94.0367,1013.74,11111222 
TABS,ioos:station:wmo:42046:1,2015-03-03T23:00:00Z,27.8903,-94.0367,1013.53,11111222 
TABS,ioos:station:wmo:42046:1,2015-03-03T23:30:00Z,27.8903,-94.0367,1013.59,11111222 
TABS,ioos:station:wmo:42046:1,2015-03-04T00:00:00Z,27.8903,-94.0367,1013.4,11111222 
TABS,ioos:station:wmo:42046:1,2015-03-04T00:30:00Z,27.8903,-94.0367,1013.46,11111222 
TABS,ioos:station:wmo:42046:1,2015-03-04T01:00:00Z,27.8903,-94.0367,1013.59,11111222 
TABS,ioos:station:wmo:42046:1,2015-03-04T01:30:00Z,27.8903,-94.0367,1013.88,11111222 
TABS,ioos:station:wmo:42046:1,2015-03-04T02:00:00Z,27.8903,-94.0367,1013.94,11111222 
TABS,ioos:station:wmo:42046:1,2015-03-04T02:30:00Z,27.8903,-94.0367,1014.2,11111222 
TABS,ioos:station:wmo:42046:1,2015-03-04T03:00:00Z,27.8903,-94.0367,1014.16,11111222 
TABS,ioos:station:wmo:42046:1,2015-03-04T03:30:00Z,27.8903,-94.0367,1014.12,11111222 
TABS,ioos:station:wmo:42046:1,2015-03-04T04:00:00Z,27.8903,-94.0367,1014.19,11111222 
TABS,ioos:station:wmo:42046:1,2015-03-04T04:30:00Z,27.8903,-94.0367,1014.17,11111222 
TABS,ioos:station:wmo:42046:1,2015-03-04T05:00:00Z,27.8903,-94.0367,1013.83,11111222 
TABS,ioos:station:wmo:42046:1,2015-03-04T05:30:00Z,27.8903,-94.0367,1013.88,11111222 
TABS,ioos:station:wmo:42046:1,2015-03-04T06:00:00Z,27.8903,-94.0367,1013.26,11111222 
TABS,ioos:station:wmo:42046:1,2015-03-04T06:30:00Z,27.8903,-94.0367,1013.09,11111222 
TABS,ioos:station:wmo:42046:1,2015-03-04T07:00:00Z,27.8903,-94.0367,1012.88,11111222 
TABS,ioos:station:wmo:42046:1,2015-03-04T07:30:00Z,27.8903,-94.0367,1012.64,11111222 
TABS,ioos:station:wmo:42046:1,2015-03-04T08:00:00Z,27.8903,-94.0367,1012.25,11111222 
TABS,ioos:station:wmo:42046:1,2015-03-04T08:30:00Z,27.8903,-94.0367,1012.24,11111222 
TABS,ioos:station:wmo:42046:1,2015-03-04T09:00:00Z,27.8903,-94.0367,1012.34,11111222 
TABS,ioos:station:wmo:42046:1,2015-03-04T09:30:00Z,27.8903,-94.0367,1012.42,11111222 
TABS,ioos:station:wmo:42046:1,2015-03-04T10:00:00Z,27.8903,-94.0367,1012.36,11111222 
TABS,ioos:station:wmo:42046:1,2015-03-04T10:30:00Z,27.8903,-94.0367,1012.41,11111222 
TABS,ioos:station:wmo:42046:1,2015-03-04T11:00:00Z,27.8903,-94.0367,1012.45,11111222 
TABS,ioos:station:wmo:42046:1,2015-03-04T11:30:00Z,27.8903,-94.0367,1012.75,11111222 
TABS,ioos:station:wmo:42046:1,2015-03-04T12:00:00Z,27.8903,-94.0367,1012.91,11111222 
TABS,ioos:station:wmo:42046:1,2015-03-04T12:30:00Z,27.8903,-94.0367,1013.01,11111222 
TABS,ioos:station:wmo:42046:1,2015-03-04T13:00:00Z,27.8903,-94.0367,1012.84,11111222 
TABS,ioos:station:wmo:42046:1,2015-03-04T13:30:00Z,27.8903,-94.0367,1012.9,11111222 
TABS,ioos:station:wmo:42046:1,2015-03-04T14:00:00Z,27.8903,-94.0367,1012.86,11111222 
TABS,ioos:station:wmo:42046:1,2015-03-04T14:30:00Z,27.8903,-94.0367,1013.23,11111222 
TABS,ioos:station:wmo:42046:1,2015-03-04T15:00:00Z,27.8903,-94.0367,1013.72,11111222 
TABS,ioos:station:wmo:42046:1,2015-03-04T15:30:00Z,27.8903,-94.0367,1013.92,11111222 
TABS,ioos:station:wmo:42046:1,2015-03-04T16:00:00Z,27.8903,-94.0367,1014.11,11111222 
TABS,ioos:station:wmo:42046:1,2015-03-04T16:30:00Z,27.8903,-94.0367,1013.69,11111222 
TABS,ioos:station:wmo:42046:1,2015-03-04T17:00:00Z,27.8903,-94.0367,1013.33,11111222 
TABS,ioos:station:wmo:42046:1,2015-03-04T17:30:00Z,27.8903,-94.0367,1012.91,11111222 
TABS,ioos:station:wmo:42046:1,2015-03-04T18:00:00Z,27.8903,-94.0367,1012.35,11111222 
TABS,ioos:station:wmo:42046:1,2015-03-04T18:30:00Z,27.8903,-94.0367,1012.04,11111222 
TABS,ioos:station:wmo:42046:1,2015-03-04T19:00:00Z,27.8903,-94.0367,1011.75,11111222 
TABS,ioos:station:wmo:42046:1,2015-03-04T19:30:00Z,27.8903,-94.0367,1011.51,11111222 
TABS,ioos:station:wmo:42046:1,2015-03-04T20:00:00Z,27.8903,-94.0367,1011.11,11111222 
TABS,ioos:station:wmo:42046:1,2015-03-04T20:30:00Z,27.8903,-94.0367,1010.75,11111222 
TABS,ioos:station:wmo:42046:1,2015-03-04T21:00:00Z,27.8903,-94.0367,1010.59,11111222 
TABS,ioos:station:wmo:42046:1,2015-03-04T21:30:00Z,27.8903,-94.0367,1010.32,11111222 
TABS,ioos:station:wmo:42046:1,2015-03-04T22:00:00Z,27.8903,-94.0367,1010.37,11111222 
TABS,ioos:station:wmo:42046:1,2015-03-04T22:30:00Z,27.8903,-94.0367,1010.26,11111222 
TABS,ioos:station:wmo:42046:1,2015-03-04T23:00:00Z,27.8903,-94.0367,1010.21,11111222 
TABS,ioos:station:wmo:42046:1,2015-03-04T23:30:00Z,27.8903,-94.0367,1010.19,11111222 
TABS,ioos:station:wmo:42046:1,2015-03-05T00:00:00Z,27.8903,-94.0367,1010.33,11111222 
TABS,ioos:station:wmo:42046:1,2015-03-05T00:30:00Z,27.8903,-94.0367,1010.28,11111222 
TABS,ioos:station:wmo:42046:1,2015-03-05T01:00:00Z,27.8903,-94.0367,1010.7,11111222 
TABS,ioos:station:wmo:42046:1,2015-03-05T01:30:00Z,27.8903,-94.0367,1011.02,11111222 
TABS,ioos:station:wmo:42046:1,2015-03-05T02:00:00Z,27.8903,-94.0367,1011.48,11111222 
TABS,ioos:station:wmo:42046:1,2015-03-05T02:30:00Z,27.8903,-94.0367,1012.09,11111222 
TABS,ioos:station:wmo:42046:1,2015-03-05T03:00:00Z,27.8903,-94.0367,1012.6,11111222 
TABS,ioos:station:wmo:42046:1,2015-03-05T03:30:00Z,27.8903,-94.0367,1012.99,11111222 
TABS,ioos:station:wmo:42046:1,2015-03-05T04:00:00Z,27.8903,-94.0367,1012.6,11111222 
TABS,ioos:station:wmo:42046:1,2015-03-05T04:30:00Z,27.8903,-94.0367,1012.87,11111222 
TABS,ioos:station:wmo:42046:1,2015-03-05T05:00:00Z,27.8903,-94.0367,1013.13,11111222 
TABS,ioos:station:wmo:42046:1,2015-03-05T05:30:00Z,27.8903,-94.0367,1013.61,11111222 
TABS,ioos:station:wmo:42046:1,2015-03-05T06:00:00Z,27.8903,-94.0367,1013.35,11111222 
TABS,ioos:station:wmo:42046:1,2015-03-05T06:30:00Z,27.8903,-94.0367,1013.83,11111222 
TABS,ioos:station:wmo:42046:1,2015-03-05T07:00:00Z,27.8903,-94.0367,1013.98,11111222 
TABS,ioos:station:wmo:42046:1,2015-03-05T07:30:00Z,27.8903,-94.0367,1014.03,11111222 
TABS,ioos:station:wmo:42046:1,2015-03-05T08:00:00Z,27.8903,-94.0367,1014.63,11111222 
TABS,ioos:station:wmo:42046:1,2015-03-05T08:30:00Z,27.8903,-94.0367,1014.46,11111222 
TABS,ioos:station:wmo:42046:1,2015-03-05T09:00:00Z,27.8903,-94.0367,1014.83,11111222 
TABS,ioos:station:wmo:42046:1,2015-03-05T09:30:00Z,27.8903,-94.0367,1014.8,11111222 
TABS,ioos:station:wmo:42046:1,2015-03-05T10:00:00Z,27.8903,-94.0367,1015.19,11111222 
TABS,ioos:station:wmo:42046:1,2015-03-05T10:30:00Z,27.8903,-94.0367,1016.35,11111222 
TABS,ioos:station:wmo:42046:1,2015-03-05T11:00:00Z,27.8903,-94.0367,1017.35,11111222 
TABS,ioos:station:wmo:42046:1,2015-03-05T11:30:00Z,27.8903,-94.0367,1017.96,11111222 
TABS,ioos:station:wmo:42046:1,2015-03-05T12:00:00Z,27.8903,-94.0367,1018.17,11111222 
TABS,ioos:station:wmo:42046:1,2015-03-05T12:30:00Z,27.8903,-94.0367,1018.56,11111222 
TABS,ioos:station:wmo:42046:1,2015-03-05T13:00:00Z,27.8903,-94.0367,1019.76,11111222 
TABS,ioos:station:wmo:42046:1,2015-03-05T13:30:00Z,27.8903,-94.0367,1020.68,11111222 
TABS,ioos:station:wmo:42046:1,2015-03-05T14:00:00Z,27.8903,-94.0367,1021.18,11111222 
TABS,ioos:station:wmo:42046:1,2015-03-05T14:30:00Z,27.8903,-94.0367,1022.02,11111222 
TABS,ioos:station:wmo:42046:1,2015-03-05T15:00:00Z,27.8903,-94.0367,1023.27,11111222 
TABS,ioos:station:wmo:42046:1,2015-03-05T15:30:00Z,27.8903,-94.0367,1023.03,11111222 
TABS,ioos:station:wmo:42046:1,2015-03-05T16:00:00Z,27.8903,-94.0367,1023.71,11111222 
TABS,ioos:station:wmo:42046:1,2015-03-05T16:30:00Z,27.8903,-94.0367,1024.21,11111222 
TABS,ioos:station:wmo:42046:1,2015-03-05T17:00:00Z,27.8903,-94.0367,1024.98,11111222 
TABS,ioos:station:wmo:42046:1,2015-03-05T17:30:00Z,27.8903,-94.0367,1024.01,11111222 
TABS,ioos:station:wmo:42046:1,2015-03-05T18:00:00Z,27.8903,-94.0367,1024.43,11111222 
TABS,ioos:station:wmo:42046:1,2015-03-05T18:30:00Z,27.8903,-94.0367,1025.19,11111222 
TABS,ioos:station:wmo:42046:1,2015-03-05T19:00:00Z,27.8903,-94.0367,1025.09,11111222 
TABS,ioos:station:wmo:42046:1,2015-03-05T19:30:00Z,27.8903,-94.0367,1025.32,11111222 
TABS,ioos:station:wmo:42046:1,2015-03-05T20:00:00Z,27.8903,-94.0367,1024.59,11111222 
TABS,ioos:station:wmo:42046:1,2015-03-05T20:30:00Z,27.8903,-94.0367,1025.34,11111222 
TABS,ioos:station:wmo:42046:1,2015-03-05T21:00:00Z,27.8903,-94.0367,1024.93,11111222 
TABS,ioos:station:wmo:42046:1,2015-03-05T21:30:00Z,27.8903,-94.0367,1025.38,11111222 
TABS,ioos:station:wmo:42046:1,2015-03-05T22:00:00Z,27.8903,-94.0367,1026.05,11111222 
TABS,ioos:station:wmo:42046:1,2015-03-05T22:30:00Z,27.8903,-94.0367,1026.54,11111222 
TABS,ioos:station:wmo:42046:1,2015-03-05T23:00:00Z,27.8903,-94.0367,1026.81,11111222 
TABS,ioos:station:wmo:42046:1,2015-03-05T23:30:00Z,27.8903,-94.0367,1027.4,11111222 
TABS,ioos:station:wmo:42046:1,2015-03-06T00:00:00Z,27.8903,-94.0367,1028.36,11111222 
TABS,ioos:station:wmo:42046:1,2015-03-06T00:30:00Z,27.8903,-94.0367,1028.39,11111222 
TABS,ioos:station:wmo:42046:1,2015-03-06T01:00:00Z,27.8903,-94.0367,1029.21,11111222 
TABS,ioos:station:wmo:42046:1,2015-03-06T01:30:00Z,27.8903,-94.0367,1029.54,11111222 
TABS,ioos:station:wmo:42046:1,2015-03-06T02:00:00Z,27.8903,-94.0367,1030.15,11111222 
TABS,ioos:station:wmo:42046:1,2015-03-06T02:30:00Z,27.8903,-94.0367,1029.8,11111222 
TABS,ioos:station:wmo:42046:1,2015-03-06T03:00:00Z,27.8903,-94.0367,1030.61,11111222 
TABS,ioos:station:wmo:42046:1,2015-03-06T03:30:00Z,27.8903,-94.0367,1031.01,11111222 
TABS,ioos:station:wmo:42046:1,2015-03-06T04:00:00Z,27.8903,-94.0367,1031.8,11111222 
TABS,ioos:station:wmo:42046:1,2015-03-06T04:30:00Z,27.8903,-94.0367,1031.44,11111222 
TABS,ioos:station:wmo:42046:1,2015-03-06T05:00:00Z,27.8903,-94.0367,1031.52,11111222 
TABS,ioos:station:wmo:42046:1,2015-03-06T05:30:00Z,27.8903,-94.0367,1030.8,11111222 
TABS,ioos:station:wmo:42046:1,2015-03-06T06:00:00Z,27.8903,-94.0367,1030.94,11111222 
TABS,ioos:station:wmo:42046:1,2015-03-06T06:30:00Z,27.8903,-94.0367,1030.37,11111222 
TABS,ioos:station:wmo:42046:1,2015-03-06T07:00:00Z,27.8903,-94.0367,1030.93,11111222 
TABS,ioos:station:wmo:42046:1,2015-03-06T07:30:00Z,27.8903,-94.0367,1030.88,11111222 
TABS,ioos:station:wmo:42046:1,2015-03-06T08:00:00Z,27.8903,-94.0367,1030.82,11111222 
TABS,ioos:station:wmo:42046:1,2015-03-06T08:30:00Z,27.8903,-94.0367,1030.19,11111222 
TABS,ioos:station:wmo:42046:1,2015-03-06T09:00:00Z,27.8903,-94.0367,1029.95,11111222 
TABS,ioos:station:wmo:42046:1,2015-03-06T09:30:00Z,27.8903,-94.0367,1030.27,11111222 
TABS,ioos:station:wmo:42046:1,2015-03-06T10:00:00Z,27.8903,-94.0367,1030.37,11111222 
TABS,ioos:station:wmo:42046:1,2015-03-06T10:30:00Z,27.8903,-94.0367,1030.32,11111222 
TABS,ioos:station:wmo:42046:1,2015-03-06T11:00:00Z,27.8903,-94.0367,1029.84,11111222 
TABS,ioos:station:wmo:42046:1,2015-03-06T11:30:00Z,27.8903,-94.0367,1030.46,11111222 
TABS,ioos:station:wmo:42046:1,2015-03-06T12:00:00Z,27.8903,-94.0367,1031.16,11111222 
TABS,ioos:station:wmo:42046:1,2015-03-06T12:30:00Z,27.8903,-94.0367,1031.24,11111222 
TABS,ioos:station:wmo:42046:1,2015-03-06T13:00:00Z,27.8903,-94.0367,1031.94,11111222 
TABS,ioos:station:wmo:42046:1,2015-03-06T13:30:00Z,27.8903,-94.0367,1032.24,11111222 
TABS,ioos:station:wmo:42046:1,2015-03-06T14:00:00Z,27.8903,-94.0367,1032.47,11111222 
TABS,ioos:station:wmo:42046:1,2015-03-06T14:30:00Z,27.8903,-94.0367,1032.56,11111222 
TABS,ioos:station:wmo:42046:1,2015-03-06T15:00:00Z,27.8903,-94.0367,1032.21,11111222 
TABS,ioos:station:wmo:42046:1,2015-03-06T15:30:00Z,27.8903,-94.0367,1033.24,11111222 
TABS,ioos:station:wmo:42046:1,2015-03-06T16:00:00Z,27.8903,-94.0367,1033.14,11111222 
TABS,ioos:station:wmo:42046:1,2015-03-06T16:30:00Z,27.8903,-94.0367,1033.16,11111222 
TABS,ioos:station:wmo:42046:1,2015-03-06T17:00:00Z,27.8903,-94.0367,1033.02,11111222 
TABS,ioos:station:wmo:42046:1,2015-03-06T17:30:00Z,27.8903,-94.0367,1032.98,11111222 
TABS,ioos:station:wmo:42046:1,2015-03-06T18:00:00Z,27.8903,-94.0367,1032.4,11111222 
TABS,ioos:station:wmo:42046:1,2015-03-06T18:30:00Z,27.8903,-94.0367,1032.43,11111222 